Stations météo

réclame
Mon MeteoGroup
St-Etienne Boutheon, France (7475): Température de l'air & dewpoint: 17.07.2019 15:00:00 - 23.07.2019 15:00:00 (CEST)St-Etienne Boutheon, France (7475): Température de l'air 5cm: 17.07.2019 15:00:00 - 23.07.2019 15:00:00 (CEST)St-Etienne Boutheon, France (7475): Température de l'air -20cm & Température de l'air -100cm: 17.07.2019 15:00:00 - 23.07.2019 15:00:00 (CEST)St-Etienne Boutheon, France (7475): Vitesse du vent & gusts: 17.07.2019 15:00:00 - 23.07.2019 15:00:00 (CEST)St-Etienne Boutheon, France (7475): Direction du vent: 17.07.2019 15:00:00 - 23.07.2019 15:00:00 (CEST)St-Etienne Boutheon, France (7475): reduced air pressure: 17.07.2019 15:00:00 - 23.07.2019 15:00:00 (CEST)St-Etienne Boutheon, France (7475): visibility: 17.07.2019 15:00:00 - 23.07.2019 15:00:00 (CEST)St-Etienne Boutheon, France (7475): Ensoleillement: 17.07.2019 15:00:00 - 23.07.2019 15:00:00 (CEST)St-Etienne Boutheon, France (7475): Quantités de précipitations: 17.07.2019 15:00:00 - 23.07.2019 15:00:00 (CEST)
Date & Time tt [°C] td [°C] tt 5cm [°C] tt -20cm [°C] tt -100cm [°C] ff [km/h] ff [knt] fx [km/h] fx [knt] dd ppp [hPa] vv [km] sd [min] rr [mm]
23.07.2019 15:00:00 36,8 9,4 43,9 27,4 20,0 7 4 26 14 SSE 1014,4 20 60 0,0
23.07.2019 14:00:00 36,0 14,1 42,6 26,6 20,0 11 6 23 12 S 1014,8 40 60 0,0
23.07.2019 13:00:00 34,1 16,5 41,4 26,0 20,0 8 4 28 15 ESE 1015,8 34 60 0,0
23.07.2019 12:00:00 32,8 16,6 38,4 25,5 20,0 6 4 20 11 S 1016,4 31 60 0,0
23.07.2019 11:00:00 30,3 17,0 35,9 25,2 19,9 8 5 14 8 SSW 1017,0 24 60 0,0
23.07.2019 10:00:00 28,1 16,7 31,2 25,3 19,9 6 4 14 8 S 1017,7 19 60 0,0
23.07.2019 09:00:00 25,8 16,6 25,1 25,5 20,0 6 4 14 8 SE 1018,3 25 60 0,0
23.07.2019 08:00:00 22,4 16,2 19,8 25,8 19,9 8 4 12 6 S 1019,2 29 37 0,0
23.07.2019 07:00:00 18,9 15,4 15,1 26,1 19,9 0 0 7 4 N 1019,9 28 20 0,0
23.07.2019 06:00:00 18,2 15,1 15,3 26,5 19,9 3 1 7 4 SW 1020,1 18 0 0,0
23.07.2019 05:00:00 19,0 15,5 15,0 27,0 19,9 4 2 5 3 SSE 1020,1 29 0 0,0
23.07.2019 04:00:00 18,6 15,1 15,3 27,3 19,9 2 1 8 5 SE 1020,4 30 0 0,0
23.07.2019 03:00:00 19,9 15,7 16,2 27,8 19,9 5 3 6 3 S 1020,2 31 0 0,0
23.07.2019 02:00:00 20,9 15,7 17,3 28,2 19,9 2 1 9 5 SSW 1020,3 32 0 0,0
23.07.2019 01:00:00 21,8 15,9 17,8 28,6 19,9 4 2 9 5 SSW 1020,3 36 0 0,0
23.07.2019 00:00:00 23,9 16,4 20,5 29,0 19,9 5 3 10 6 NE 1019,9 35 0 0,0
22.07.2019 23:00:00 25,1 16,0 20,6 29,4 19,8 2 1 9 5 W 1019,6 39 0 0,0
22.07.2019 22:00:00 27,2 16,2 22,2 29,6 19,8 4 2 11 6 ENE 1019,0 2,7 0 0,0
22.07.2019 21:00:00 30,1 15,8 27,8 29,8 19,8 8 4 19 11 ENE 1018,3 51 26 0,0
22.07.2019 20:00:00 32,1 16,0 32,1 29,7 19,8 13 7 20 11 NE 1017,7 47 60 0,0
22.07.2019 19:00:00 33,6 15,1 37,1 29,5 19,8 7 4 24 13 N 1017,5 45 60 0,0
22.07.2019 18:00:00 33,8 15,3 37,4 28,9 19,8 10 6 25 14 E 1017,7 46 60 0,0
22.07.2019 17:00:00 34,4 15,3 39,5 28,3 19,8 16 9 30 16 N 1018,1 50 60 0,0
22.07.2019 16:00:00 33,9 15,4 40,9 27,5 19,8 11 6 42 23 NW 1018,6 38 60 0,0
22.07.2019 15:00:00 33,1 13,7 40,9 26,7 19,8 10 5 22 12 N 1019,4 34 60 0,0
22.07.2019 14:00:00 31,8 15,7 38,7 25,9 19,7 8 5 25 14 NNE 1020,0 46 60 0,0
22.07.2019 13:00:00 30,9 14,9 39,0 25,3 19,8 6 3 18 10 NW 1020,7 50 60 0,0
22.07.2019 12:00:00 30,1 15,4 38,0 24,9 19,8 6 4 15 8 NNE 1021,4 57 60 0,0
22.07.2019 11:00:00 28,0 13,9 33,8 24,7 19,7 6 3 14 8 NNE 1022,0 46 60 0,0
22.07.2019 10:00:00 27,0 13,4 31,6 24,7 19,7 4 2 11 6 WNW 1022,2 58 60 0,0
22.07.2019 09:00:00 24,8 14,9 24,8 24,8 19,7 3 2 10 5 SSE 1022,6 46 60 0,0
22.07.2019 08:00:00 21,5 15,8 17,4 25,1 19,7 5 3 8 4 S 1022,9 58 44 0,0
22.07.2019 07:00:00 17,4 15,0 14,7 25,5 19,7 5 3 9 5 S 1023,3 36 0 0,0
22.07.2019 06:00:00 17,6 15,2 13,8 25,9 19,7 8 4 9 5 S 1023,4 33 0 0,0
22.07.2019 05:00:00 18,4 15,8 15,0 26,2 19,7 3 2 6 3 E 1023,4 30 0 0,0
22.07.2019 04:00:00 18,8 16,2 16,1 26,6 19,7 4 2 8 5 SSE 1023,1 29 0 0,0
22.07.2019 03:00:00 20,5 17,3 17,5 27,0 19,7 3 1 5 3 SSE 1022,5 26 0 0,0
22.07.2019 02:00:00 21,3 17,5 17,9 27,3 19,7 2 1 9 5 W 1022,2 28 0 0,0
22.07.2019 01:00:00 22,4 17,3 19,1 27,7 19,7 4 2 7 4 SSE 1021,9 30 0 0,0
22.07.2019 00:00:00 24,0 17,5 20,2 28,0 19,7 3 2 9 5 S 1021,5 31 0 0,0
21.07.2019 23:00:00 26,7 17,5 23,5 28,3 19,7 4 2 23 13 NNW 1020,8 39 0 0,0
21.07.2019 22:00:00 26,3 17,1 23,4 28,5 19,7 4 2 10 5 NNE 1020,3 11 0 0,0
21.07.2019 21:00:00 28,1 17,0 26,7 28,7 19,7 8 5 21 11 NE 1019,2 40 0 0,0
21.07.2019 20:00:00 29,6 16,1 29,3 28,6 19,7 10 5 16 9 N 1018,6 45 2 0,0
21.07.2019 19:00:00 30,5 16,9 31,5 28,3 19,7 11 6 21 12 N 1018,1 38 40 0,0
21.07.2019 18:00:00 31,4 16,6 37,7 27,7 19,6 10 6 26 14 NNW 1017,8 40 60 0,0
21.07.2019 17:00:00 31,5 16,3 37,7 27,0 19,7 11 6 23 13 NNW 1018,3 18 60 0,0
21.07.2019 16:00:00 31,4 16,6 37,5 26,2 19,6 6 3 20 11 NW 1018,7 35 60 0,0
21.07.2019 15:00:00 30,4 17,5 37,9 25,5 19,7 7 4 22 12 NW 1019,3 19 60 0,0
21.07.2019 14:00:00 29,1 17,9 37,3 24,8 19,6 9 5 23 12 NW 1019,9 56 60 0,0
21.07.2019 13:00:00 27,6 17,7 32,3 24,2 19,6 6 3 19 10 NW 1020,5 50 49 0,0
21.07.2019 12:00:00 26,1 18,2 32,4 23,8 19,6 6 4 21 11 WNW 1021,2 42 43 0,0
21.07.2019 11:00:00 25,1 17,8 29,0 23,6 19,6 5 3 19 10 W 1021,3 37 43 0,0
21.07.2019 10:00:00 23,3 17,5 24,3 23,5 19,6 6 3 18 10 N 1021,6 41 33 0,0
21.07.2019 09:00:00 21,8 18,6 21,3 23,6 19,6 6 4 13 7 WNW 1021,3 23 25 0,0
21.07.2019 08:00:00 20,3 17,5 19,7 23,8 19,6 4 2 9 5 NNE 1021,2 24 0 0,0
21.07.2019 07:00:00 19,5 17,3 17,9 24,0 19,6 2 1 5 3 WNW 1021,0 26 0 0,0
21.07.2019 06:00:00 19,4 17,4 18,0 24,2 19,6 3 2 5 3 NNE 1020,4 27 0 0,0
21.07.2019 05:00:00 19,5 17,3 18,3 24,4 19,6 3 1 9 5 ESE 1020,1 27 0 0,0
21.07.2019 04:00:00 19,5 17,6 18,4 24,7 19,6 4 2 9 5 ESE 1020,1 24 0 0,0
21.07.2019 03:00:00 20,0 17,6 18,5 25,0 19,6 5 3 10 6 WSW 1020,2 35 0 0,0
21.07.2019 02:00:00 20,2 17,8 18,3 25,2 19,6 8 5 26 14 NE 1020,0 33 0 0,0
21.07.2019 01:00:00 19,5 17,1 17,9 25,5 19,6 4 2 27 14 NNW 1019,2 18 0 0,0
21.07.2019 00:00:00 20,5 17,5 19,0 25,8 19,6 9 5 17 9 N 1018,9 27 0 0,0
20.07.2019 23:00:00 21,4 17,6 19,4 26,0 19,6 7 4 32 17 ESE 1018,0 30 0 0,0
20.07.2019 22:00:00 23,0 16,8 20,9 26,1 19,6 6 4 21 11 WNW 1016,6 13 0 0,0
20.07.2019 21:00:00 23,7 16,7 23,3 26,1 19,6 17 9 29 16 N 1015,6 48 0 0,0
20.07.2019 20:00:00 29,2 15,3 29,1 25,9 19,5 20 11 34 18 S 1013,5 49 37 0,0
20.07.2019 19:00:00 30,5 15,0 29,6 25,8 19,6 22 12 31 17 SSE 1013,2 60 45 0,0
20.07.2019 18:00:00 29,3 14,7 29,4 25,4 19,6 16 9 29 16 SSE 1013,8 51 17 0,0
20.07.2019 17:00:00 30,1 13,8 32,1 25,0 19,6 18 10 30 16 SSW 1013,8 47 32 0,0
20.07.2019 16:00:00 29,8 13,1 32,5 24,6 19,6 20 11 38 20 SSW 1014,0 60 39 0,0
20.07.2019 15:00:00 29,6 12,5 27,0 24,2 19,5 20 11 31 17 S 1014,1 60 7 0,0
20.07.2019 14:00:00 27,2 12,8 28,0 23,9 19,5 8 5 26 14 WSW 1015,4 56 24 0,0
20.07.2019 13:00:00 28,3 13,0 26,0 23,7 19,5 12 6 39 21 S 1014,7 48 12 0,0
20.07.2019 12:00:00 26,3 11,6 26,5 23,4 19,5 19 10 40 22 SSW 1015,5 50 13 0,0
20.07.2019 11:00:00 26,7 12,4 25,9 23,3 19,5 23 12 38 21 SW 1015,2 34 30 0,0
20.07.2019 10:00:00 26,3 12,7 24,9 23,3 19,5 20 11 33 18 SSW 1015,2 48 28 0,0
20.07.2019 09:00:00 24,9 11,8 25,3 23,5 19,5 13 7 21 11 S 1013,8 20 60 0,0
20.07.2019 08:00:00 23,2 10,3 20,0 23,8 19,5 8 4 21 11 SSE 1013,6 51 60 0,0
20.07.2019 07:00:00 20,6 9,5 16,1 24,1 19,5 12 6 23 12 SSE 1013,5 46 22 0,0
20.07.2019 06:00:00 20,2 9,1 13,6 24,5 19,5 15 8 27 15 SSE 1013,7 47 0 0,0
20.07.2019 05:00:00 19,0 10,3 14,9 24,9 19,5 6 3 19 11 SE 1014,0 40 0 0,0
20.07.2019 04:00:00 19,6 11,1 15,2 25,3 19,5 9 5 19 10 SSE 1013,6 37 0 0,0
20.07.2019 03:00:00 21,2 10,9 15,9 25,7 19,5 9 5 14 8 S 1013,5 39 0 0,0
20.07.2019 02:00:00 19,6 11,4 14,8 26,1 19,5 11 6 16 8 SSE 1013,6 39 0 0,0
20.07.2019 01:00:00 18,9 12,2 15,0 26,6 19,5 9 5 12 6 S 1013,8 36 0 0,0
20.07.2019 00:00:00 20,7 12,7 16,8 26,9 19,5 8 4 14 8 SSE 1013,5 38 0 0,0
19.07.2019 23:00:00 23,5 12,8 20,1 27,3 19,5 6 3 18 10 W 1013,1 38 0 0,0
19.07.2019 22:00:00 25,5 12,3 21,3 27,5 19,5 6 3 20 11 SE 1012,5 14 0 0,0
19.07.2019 21:00:00 27,9 11,9 26,4 27,6 19,5 14 8 21 11 ESE 1011,9 59 46 0,0
19.07.2019 20:00:00 29,8 12,2 30,2 27,5 19,4 11 6 19 10 SE 1011,5 51 60 0,0
19.07.2019 19:00:00 30,3 10,3 34,0 27,2 19,5 8 4 21 12 SSE 1011,8 56 60 0,0
19.07.2019 18:00:00 31,0 9,8 37,3 26,6 19,5 4 2 16 9 WNW 1012,3 49 60 0,0
19.07.2019 17:00:00 30,4 9,8 35,3 25,9 19,5 4 2 24 13 ENE 1012,7 52 60 0,0
19.07.2019 16:00:00 29,4 10,5 36,9 25,0 19,5 8 4 19 10 NNW 1013,4 60 60 0,0
19.07.2019 15:00:00 28,0 10,2 34,4 24,2 19,4 9 5 18 10 N 1014,3 20 60 0,0
19.07.2019 14:00:00 26,8 11,3 33,4 23,4 19,4 7 4 18 10 NNE 1014,9 57 60 0,0
19.07.2019 13:00:00 25,3 11,5 32,9 22,7 19,4 8 4 21 12 N 1016,0 60 60 0,0
19.07.2019 12:00:00 24,4 12,0 31,0 22,2 19,4 5 3 17 9 NE 1016,4 20 60 0,0
19.07.2019 11:00:00 22,7 12,3 28,1 21,9 19,4 5 3 23 12 NNW 1017,1 47 60 0,0
19.07.2019 10:00:00 21,5 11,8 26,4 21,9 19,4 4 2 11 6 NE 1017,7 48 60 0,0
19.07.2019 09:00:00 19,8 11,3 20,1 22,1 19,4 3 1 6 3 S 1018,0 20 60 0,0
19.07.2019 08:00:00 17,2 10,8 13,4 22,4 19,4 3 1 8 5 SSE 1018,2 22 60 0,0
19.07.2019 07:00:00 12,5 10,6 8,7 22,7 19,4 4 2 6 4 S 1018,8 36 22 0,0
19.07.2019 06:00:00 12,1 9,5 8,6 23,1 19,3 3 2 5 3 NNE 1018,8 34 0 0,0
19.07.2019 05:00:00 12,8 9,6 8,7 23,5 19,4 4 2 5 3 SSE 1018,4 36 0 0,0
19.07.2019 04:00:00 13,6 9,6 9,8 24,0 19,4 0 0 7 4 N 1018,3 46 0 0,0
19.07.2019 03:00:00 14,3 9,7 9,5 24,4 19,4 6 4 8 4 S 1018,2 49 0 0,0
19.07.2019 02:00:00 14,3 9,1 9,7 24,8 19,4 4 2 6 3 SE 1018,2 52 0 0,0
19.07.2019 01:00:00 15,5 9,2 10,5 25,2 19,3 3 2 7 4 S 1017,8 60 0 0,0
19.07.2019 00:00:00 16,2 8,9 11,4 25,7 19,4 2 1 7 4 SSE 1017,1 59 0 0,0
18.07.2019 23:00:00 19,8 8,2 14,1 26,0 19,3 3 1 14 8 N 1016,1 60 0 0,0
18.07.2019 22:00:00 21,9 8,0 18,9 26,3 19,4 10 5 24 13 N 1015,3 56 1 0,0
18.07.2019 21:00:00 24,6 7,3 23,5 26,4 19,3 16 9 31 17 N 1013,8 60 60 0,0
18.07.2019 20:00:00 26,3 6,8 26,1 26,5 19,4 16 9 26 14 N 1013,0 53 17 0,0
18.07.2019 19:00:00 26,3 6,8 27,4 26,3 19,4 17 9 30 16 N 1012,5 50 4 0,0
18.07.2019 18:00:00 27,1 9,4 29,5 25,9 19,3 13 7 28 15 N 1012,3 57 28 0,0
18.07.2019 17:00:00 27,6 11,2 31,1 25,4 19,3 14 8 35 19 N 1012,1 49 29 0,0
18.07.2019 16:00:00 28,5 11,5 31,6 24,8 19,3 10 5 26 14 WNW 1011,9 20 50 0,0
18.07.2019 15:00:00 27,5 11,5 33,3 24,2 19,3 10 5 19 10 NW 1012,3 52 52 0,0
18.07.2019 14:00:00 27,1 11,6 33,0 23,5 19,3 6 3 20 11 NE 1012,7 53 43 0,0
18.07.2019 13:00:00 26,1 11,1 32,5 23,0 19,3 7 4 19 10 N 1013,1 48 60 0,0
18.07.2019 12:00:00 24,6 11,5 30,9 22,5 19,3 7 4 18 10 NE 1013,7 42 60 0,0
18.07.2019 11:00:00 24,1 11,4 29,8 22,3 19,3 6 4 14 8 NW 1013,9 48 60 0,0
18.07.2019 10:00:00 22,8 10,9 26,4 22,3 19,3 3 2 10 5 SE 1014,2 48 60 0,0
18.07.2019 09:00:00 20,3 11,0 19,6 22,5 19,3 4 2 8 5 SSE 1014,7 37 38 0,0
18.07.2019 08:00:00 16,8 10,6 14,1 22,7 19,3 3 1 6 4 S 1014,9 39 21 0,0
18.07.2019 07:00:00 13,8 9,4 11,0 23,1 19,3 2 1 6 3 E 1015,2 44 21 0,0
18.07.2019 06:00:00 13,9 9,3 10,5 23,5 19,3 2 1 11 6 SW 1015,1 45 0 0,0
18.07.2019 05:00:00 13,8 9,2 10,1 23,9 19,3 5 3 9 5 S 1014,9 51 0 0,0
18.07.2019 04:00:00 14,6 9,4 11,1 24,4 19,3 5 3 20 11 NNW 1014,6 52 0 0,0
18.07.2019 03:00:00 14,5 9,1 10,3 24,8 19,3 5 3 8 5 SSE 1014,4 56 0 0,0
18.07.2019 02:00:00 15,9 9,6 10,9 25,2 19,3 4 2 10 6 SE 1014,3 54 0 0,0
18.07.2019 01:00:00 18,1 10,2 14,2 25,7 19,3 5 3 8 5 SSE 1013,8 55 0 0,0
18.07.2019 00:00:00 19,5 9,7 16,0 26,0 19,3 3 1 8 5 SSW 1013,7 55 0 0,0
17.07.2019 23:00:00 21,9 9,1 19,1 26,4 19,3 6 3 8 5 WNW 1013,0 59 0 0,0
17.07.2019 22:00:00 23,0 8,7 19,4 26,7 19,3 5 3 15 8 N 1012,2 14 0 0,0
17.07.2019 21:00:00 24,9 8,8 22,7 26,9 19,3 10 5 22 12 N 1011,3 60 0 0,0
17.07.2019 20:00:00 26,8 9,2 25,5 26,8 19,3 13 7 25 13 N 1010,7 60 3 0,0
17.07.2019 19:00:00 28,2 8,5 28,7 26,5 19,3 12 6 23 12 N 1010,5 56 44 0,0
17.07.2019 18:00:00 29,9 7,7 34,5 25,9 19,3 9 5 23 12 WNW 1010,4 49 60 0,0
17.07.2019 17:00:00 29,9 8,3 35,6 25,2 19,3 9 5 21 11 WNW 1010,9 51 60 0,0
17.07.2019 16:00:00 29,3 8,4 35,2 24,4 19,3 6 3 19 11 NNW 1011,4 49 60 0,0
17.07.2019 15:00:00 28,7 9,9 34,5 23,6 19,3 9 5 21 11 WNW 1011,9 59 60 0,0

tt = Température de l'air
td = dewpoint
tt 5cm = Température de l'air 5cm
tt -20cm = Température de l'air -20cm
tt -100cm = Température de l'air -100cm
ff = Vitesse du vent
fx = gusts
dd = Direction du vent
ppp = reduced air pressure
vv = visibility
sd = Ensoleillement
rr = Quantités de précipitations

stations d'obs. à proximité